Simultaneous Nadir Overpasses (SNOs) Predictions

Prediction of SNOs between GOES-17 and METOP-B Satellite Orbit:

Table of predicted SNOs for the next 14.0 days since TLE Epoch: 7/30/2022
Index Date Time (GOES-17) GOES-17 Lat,Lon METOP-B Lat,Lon Distance(km) Time Diff (sec)
1 07/30/2022 06:30:10 0.00,-137.29 0.57,-134.79 285.25 80
2 07/31/2022 18:46:21 -0.02,-137.30 0.45,-139.35 234.24 80
3 08/01/2022 18:28:21 -0.01,-137.30 -0.68,-134.36 335.16 80
4 08/03/2022 06:44:41 0.02,-137.30 -0.36,-138.95 188.65 80
5 08/04/2022 06:26:41 0.02,-137.30 0.78,-133.96 380.39 80
6 08/05/2022 18:42:52 -0.02,-137.29 0.24,-138.52 140.24 80
7 08/06/2022 18:24:52 -0.01,-137.28 -0.83,-133.52 428.19 80
8 08/08/2022 06:41:11 0.01,-137.26 -0.20,-138.11 97.39 80
9 08/09/2022 06:23:12 0.01,-137.25 0.93,-133.12 470.36 80
10 08/10/2022 18:39:23 -0.02,-137.22 0.08,-137.68 52.23 80
